Regional Weather Roundup
Issued by NWS

Home | Current Version | Previous Version | Text Only | Print | Product List | Glossary On
Versions: 1 2 3 4 5 6 7 8 9 10 11 12 13 14 15 16 17 18 19 20 21 22 23 24 25 26 27 28 29 30 31 32 33 34 35 36 37 38 39 40 41 42 43 44 45 46 47 48 49 50
133
ASUS44 KJAN 191403
RWRMS

MISSISSIPPI HOURLY WEATHER ROUNDUP
NATIONAL WEATHER SERVICE JACKSON MS
900 AM CDT SUN APR 19 2015

NOTE: "FAIR: INDICATES FEW OR NO CLOUDS BELOW 12,000 FEET WITH NO
SIGNIFICANT WEATHER AND/OR OBSTRUCTIONS TO VISIBILITY.

MSZ001>002-007>008-010>013-018>021-025>028-034>036-191500-
NORTHWEST MISSISSIPPI

CITY           SKY/WX    TMP DP  RH WIND       PRES   REMARKS
CLARKSDALE       N/A     66  66 100 NW9       29.63F
CLEVELAND      CLOUDY    65  65 100 SW13      29.68R
GREENWOOD      MOSUNNY   67  62  84 S12       29.67F
GREENVILLE     CLOUDY    66  64  93 SW10      29.69S
OLIVE BRANCH   CLOUDY    63  63 100 W9        29.63F
OXFORD         PTSUNNY   63  61  94 W7        29.65F
TUNICA         CLOUDY    66  64  94 W12       29.64F
$$

MSZ003>006-009-014>017-022>024-029>033-037>039-191500-
NORTHEAST MISSISSIPPI

CITY           SKY/WX    TMP DP  RH WIND       PRES   REMARKS
COLUMBUS AFB   MOSUNNY   69  68  99 S8        29.70F
CORINTH        CLOUDY    66  64  94 S6        29.64F
GOLDN TRIANGLE PTSUNNY   70  64  83 S9        29.70F
STARKVILLE     PTSUNNY   68  64  88 W6        29.71F
TUPELO         CLOUDY    66  62  87 SW7       29.67F
$$

MSZ040-058-191500-
CENTRAL MISSISSIPPI

CITY           SKY/WX    TMP DP  RH WIND       PRES   REMARKS
JACKSON INTL   MOSUNNY   71  67  87 SW12      29.71S
JACKSON HAWKNS LGT RAIN  70  66  87 SW13      29.72R
MERIDIAN KEY   PTSUNNY   71  67  87 SW6       29.74S
MERIDIAN NAS   MOSUNNY   71  68  90 S5        29.74S
RAYMOND        CLOUDY    68  64  88 W9        29.73R
VICKSBURG      MOSUNNY   67  62  84 W10G17    29.74R
$$

MSZ059>079-191500-
SOUTH MISSISSIPPI

CITY           SKY/WX    TMP DP  RH WIND       PRES   REMARKS
BROOKHAVEN       N/A    N/A N/A N/A SW8       29.78R
HATTIESBURG    PTSUNNY   72  67  84 W6        29.77S HAZE
MCCOMB         SUNNY     72  67  84 S8        29.77R
NATCHEZ        CLOUDY    64  61  88 W7        29.77R
PINE BELT      PTSUNNY   70  59  68 SW6       29.77R
$$

MSZ080>082-191500-
COASTAL MISSISSIPPI

CITY           SKY/WX    TMP DP  RH WIND       PRES   REMARKS
BAY ST LOUIS   MOSUNNY   72  66  83 MISG      29.78S
BILOXI         CLOUDY    72  72  99 VRB5      29.78R
PASCAGOULA     CLOUDY    73  70  90 CALM      29.79F
GULFPORT       CLOUDY    72  69  90 W3        29.78R
$$



USA.gov is the U.S. government's official web portal to all federal, state and local government web resources and services.